FENGYUN 1C DEB, 36222

Orbit data source: Space-Track

FENGYUN 1C DEB, 36222 is space debris in SSO originally from a launch on Mon, 10 May 1999 UTC launched from the Taiyaun Space Center, China (TSC). Fengyun 1C debris stems from the Chinese weather satellite Fengyun-1C, which was intentionally destroyed by a Chinese anti-satellite missile in 2007. This event dramatically increased the amount of space debris, with thousands of trackable fragments posing hazards to satellites and human spaceflight. The Fengyun 1C debris cloud has become a focal point in discussions about space sustainability and the need for international regulations to prevent the creation of new debris.

Loading next visibility...
Identifier
36222, 1999-025DUX
Orbit
SSO
Country
Flag of CNCN / PRC
Related business
Manufacturer
Unknown
Mission
Spacecraft
Bus & Motor
Unknown
Mass
Unknown
Launch date (UTC)
1999-05-10 (27 years ago)
Launch vehicle
Unknown
Launch site
Taiyaun Space Center, China (TSC)
Object type
Payload
Rocket body
Debris
Shape & HBR
Unknown shape, 0.1 m
Radar Cross Section
Medium (>0.1 m² and <1 m²)

Expand to show TLE details & history
Last TLE update: 15 hours ago

TLE from 15 hours ago
0 FENGYUN 1C DEB
1 36222U 99025DUX 26253.98952345  .00002273  00000-0  65434-3 0  9992
2 36222  98.4972 323.3109 0041671 335.3925  24.5277 14.45238521690609
Epoch: 2026-09-10T23:44Z
TLE epoch observation values (Epoch: 2026-09-10T23:44:54.826Z)
Latitude
Longitude
-22.93686°
Altitude
717.224 km
Speed
7.511 km/s
True Right ascension
21h 33m 14s
True Declination
0° 00' 00"
Sunlit
Object was in full shadow at epoch
Visualization orbit readout
Latitude
Unknown
Longitude
Unknown
Altitude
Unknown
Speed
Unknown
Apparent Right ascension
Unknown
Apparent Declination
Unknown
Sunlit
N/A
Visualization observer readout
Local Sidereal Time
06:49:31
Azimuth
Unknown
Elevation
Unknown
Doppler factor
Unknown
Orbital elements
Apogee altitude
768.013 km
Perigee altitude
708.702 km
Semi-major axis
7,116.494 km
Eccentricity
0.00417
Inclination
98.4972°
RAAN
323.3109°
Arg. of periapsis
335.3925°
True anomaly
24.72688°
Mean anomaly
24.5277°
Eccentric anomaly
24.62719°
Mean motion
3.6153 °/min
Orbital period
99.58 mins
BSTAR
0.00065434
Loading maneuver chart data...
Computing Atmospheric mass density...
Loading historical data...
Loading historical data...
Loading historical data...
Loading historical data...
Loading historical data...
Loading historical data...
Loading historical data...

Documentation

Showing up to 5 results
|